"2009-11-13 00:00:00",1411486,6.713,339.4,1.011,0.068,16.89,106.6972,16.42,17.44,15.12,0,110.5,13.29,17.23,301.4
"2009-11-13 00:00:30",1411487,6.589,336.6,1.657,0.292,16.87,106.7002,16.43,17.44,15.12,0,110.5,13.29,17.24,298.6
"2009-11-13 00:01:00",1411488,6.229,338.8,2.968,0.137,16.87,106.7012,16.43,17.42,15.14,0,110.5,13.29,17.24,300.8
"2009-11-13 00:01:30",1411489,6.148,339.9,1.587,0.203,16.91,106.6989,16.42,17.41,15.13,0,110.5,13.29,17.23,301.9
"2009-11-13 00:02:00",1411490,6.673,339.8,2.176,0.213,16.8,106.6894,16.4,17.4,15.16,0,110.5,13.29,17.21,301.8
"2009-11-13 00:02:30",1411491,6.637,340.1,1.115,0.114,16.88,106.6911,16.4,17.4,15.14,0,110.5,13.29,17.21,302.1
"2009-11-13 00:03:00",1411492,6.224,339.8,2.72,0.22,16.85,106.6844,16.39,17.39,15.14,0,110.5,13.29,17.20,301.8
"2009-11-13 00:03:30",1411493,5.91,337.6,2.898,0.307,16.9,106.6844,16.39,17.41,15.15,0,110.5,13.29,17.20,299.6
"2009-11-13 00:04:00",1411494,5.872,339.1,1.874,0.237,16.89,106.6862,16.39,17.38,15.18,0,110.5,13.29,17.20,301.1
"2009-11-13 00:04:30",1411495,6.038,339.1,1.758,0.204,16.91,106.6886,16.4,17.38,15.21,0,110.5,13.29,17.21,301.1
"2009-11-13 00:05:00",1411496,6.111,338.2,1.362,0.149,16.8,106.6889,16.4,17.37,15.23,0,110.5,13.29,17.21,300.2
"2009-11-13 00:05:30",1411497,6.032,335.8,0.911,0.085,16.94,106.6913,16.4,17.37,15.24,0,110.5,13.3,17.21,297.8
"2009-11-13 00:06:00",1411498,6.043,335.8,1.281,0.155,16.85,106.6894,16.4,17.35,15.22,0,110.5,13.3,17.21,297.8
"2009-11-13 00:06:30",1411499,6.07,339.4,1.376,0.109,16.83,106.6852,16.39,17.36,15.2,0,110.5,13.3,17.20,301.4
"2009-11-13 00:07:00",1411500,5.961,342.8,2.311,0.117,16.88,106.6805,16.38,17.35,15.16,0,110.5,13.3,17.19,304.8
"2009-11-13 00:07:30",1411501,5.933,340.1,1.459,0.173,16.85,106.6638,16.33,17.34,15.15,0,110.5,13.3,17.14,302.1
"2009-11-13 00:08:00",1411502,6.07,341.6,0.797,0.087,16.83,106.6599,16.32,17.33,15.15,0,110.5,13.3,17.13,303.6
"2009-11-13 00:08:30",1411503,6.169,342.5,1.04,0.083,16.75,106.6599,16.32,17.33,15.15,0,110.5,13.3,17.13,304.5
"2009-11-13 00:09:00",1411504,6.088,340.7,1.287,0.112,16.82,106.6599,16.32,17.32,15.18,0,110.5,13.29,17.13,302.7
"2009-11-13 00:09:30",1411505,5.888,338.8,0.793,0.069,16.86,106.6599,16.32,17.3,15.18,0,110.5,13.29,17.13,300.8
"2009-11-13 00:10:00",1411506,6.14,338.7,0.733,0.214,16.79,106.6599,16.32,17.29,15.2,0,110.5,13.29,17.13,300.7
"2009-11-13 00:10:30",1411507,6.409,338.6,1.111,0.136,16.79,106.6599,16.32,17.3,15.21,0,110.5,13.29,17.13,300.6
"2009-11-13 00:11:00",1411508,6.419,339.7,0.718,0.059,16.77,106.6531,16.31,17.29,15.24,0,110.5,13.29,17.12,301.7
"2009-11-13 00:11:30",1411509,6.311,339.8,0.719,0.095,16.73,106.6362,16.26,17.28,15.26,0,110.5,13.29,17.07,301.8
"2009-11-13 00:12:00",1411510,6.146,339.6,0.954,0.09,16.81,106.6312,16.25,17.26,15.29,0,110.5,13.29,17.06,301.6
"2009-11-13 00:12:30",1411511,6.069,339.4,2.233,0.082,16.87,106.6264,16.24,17.27,15.34,0,110.5,13.29,17.05,301.4
"2009-11-13 00:13:00",1411512,6.086,337.9,2.091,0.117,16.89,106.6261,16.24,17.25,15.36,0,110.5,13.29,17.05,299.9
"2009-11-13 00:13:30",1411513,5.987,335.2,1.44,0.189,16.87,106.6261,16.24,17.25,15.39,0,110.5,13.29,17.05,297.2
"2009-11-13 00:14:00",1411514,6.229,335.6,0.886,0.062,16.73,106.6261,16.24,17.25,15.4,0,110.5,13.3,17.05,297.6
"2009-11-13 00:14:30",1411515,6.306,336.2,1.258,0.101,16.74,106.6261,16.24,17.24,15.41,0,110.5,13.3,17.05,298.2
"2009-11-13 00:15:00",1411516,6.237,331.8,2.603,0.206,16.84,106.6261,16.24,17.23,15.44,0,110.5,13.3,17.05,293.8
"2009-11-13 00:15:30",1411517,6,329.1,2.18,0.352,16.93,106.6193,16.22,17.22,15.43,0,110.5,13.3,17.03,291.1
"2009-11-13 00:16:00",1411518,6.364,332.8,2.549,0.289,16.79,106.6182,16.22,17.21,15.44,0,110.5,13.3,17.03,294.8
"2009-11-13 00:16:30",1411519,5.572,331.1,1.949,0.288,16.89,106.6097,16.2,17.21,15.45,0,110.5,13.3,17.00,293.1
"2009-11-13 00:17:00",1411520,5.583,329.8,1.973,0.384,16.88,106.601,16.17,17.22,15.46,0,110.5,13.3,16.98,291.8
"2009-11-13 00:17:30",1411521,6.24,335.9,1.561,0.095,16.71,106.5957,16.16,17.21,15.44,0,110.5,13.3,16.97,297.9
"2009-11-13 00:18:00",1411522,6.208,335.7,1.047,0.121,16.69,106.5926,16.15,17.21,15.47,0,110.5,13.3,16.96,297.7
"2009-11-13 00:18:30",1411523,5.955,332.5,1.593,0.098,16.72,106.5923,16.15,17.21,15.48,0,110.5,13.3,16.96,294.5
"2009-11-13 00:19:00",1411524,5.699,328.4,1.054,0.108,17,106.5923,16.15,17.2,15.52,0,110.5,13.3,16.96,290.4
"2009-11-13 00:19:30",1411525,5.506,328.8,1.214,0.087,16.86,106.5923,16.15,17.19,15.53,0,110.5,13.3,16.96,290.8
"2009-11-13 00:20:00",1411526,5.79,333.8,1.492,0.139,16.78,106.5923,16.15,17.17,15.55,0,110.5,13.3,16.96,295.8
"2009-11-13 00:20:30",1411527,5.774,334.3,1.533,0.131,16.74,106.5926,16.15,17.17,15.55,0,110.5,13.3,16.96,296.3
"2009-11-13 00:21:00",1411528,5.667,332.3,1.211,0.097,16.9,106.5923,16.15,17.18,15.56,0,110.5,13.31,16.96,294.3
"2009-11-13 00:21:30",1411529,5.805,329.9,1.232,0.075,16.74,106.5923,16.15,17.18,15.59,0,110.5,13.31,16.96,291.9
"2009-11-13 00:22:00",1411530,6.044,328,0.675,0.072,16.7,106.5923,16.15,17.16,15.61,0,110.5,13.31,16.96,290.0
"2009-11-13 00:22:30",1411531,5.98,326.7,0.759,0.058,16.8,106.5938,16.15,17.16,15.59,0,110.5,13.31,16.96,288.7
"2009-11-13 00:23:00",1411532,6.06,324.8,1.149,0.103,16.9,106.5953,16.16,17.17,15.61,0,110.5,13.31,16.97,286.8
"2009-11-13 00:23:30",1411533,5.757,324.7,0.754,0.111,16.94,106.5986,16.17,17.17,15.61,0,110.5,13.31,16.97,286.7
"2009-11-13 00:24:00",1411534,5.762,324.5,0.917,0.113,16.88,106.6017,16.17,17.17,15.6,0,110.5,13.31,16.98,286.5
"2009-11-13 00:24:30",1411535,5.967,324.6,1.18,0.064,16.93,106.597,16.16,17.16,15.58,0,110.5,13.31,16.97,286.6
"2009-11-13 00:25:00",1411536,6.039,325.8,1.228,0.072,16.78,106.5921,16.15,17.17,15.6,0,110.5,13.31,16.96,287.8
"2009-11-13 00:25:30",1411537,6.133,327.9,1.257,0.161,16.77,106.5887,16.14,17.15,15.6,0,110.5,13.3,16.95,289.9
"2009-11-13 00:26:00",1411538,6.323,330.8,0.712,0.087,16.68,106.5909,16.15,17.15,15.62,0,110.5,13.3,16.96,292.8
"2009-11-13 00:26:30",1411539,6.429,329.1,1.083,0.138,16.75,106.5913,16.15,17.15,15.64,0,110.5,13.3,16.96,291.1
"2009-11-13 00:27:00",1411540,6.42,326.5,1.096,0.123,16.92,106.5913,16.15,17.15,15.63,0,110.5,13.3,16.96,288.5
"2009-11-13 00:27:30",1411541,6.428,325.1,1.117,0.197,16.92,106.5914,16.15,17.15,15.62,0,110.5,13.3,16.96,287.1
"2009-11-13 00:28:00",1411542,5.924,323.1,0.906,0.118,17.05,106.5897,16.14,17.15,15.62,0,110.5,13.3,16.95,285.1
"2009-11-13 00:28:30",1411543,5.888,321.9,0.652,0.107,17.04,106.5855,16.13,17.15,15.62,0,110.5,13.3,16.94,283.9
"2009-11-13 00:29:00",1411544,5.899,323.4,1.21,0.059,17.06,106.5864,16.14,17.16,15.62,0,110.5,13.3,16.94,285.4
"2009-11-13 00:29:30",1411545,5.978,325.1,1.808,0.074,16.96,106.5882,16.14,17.14,15.63,0,110.5,13.3,16.95,287.1
"2009-11-13 00:30:00",1411546,6.054,326.8,0.968,0.092,16.7,106.5906,16.15,17.12,15.63,0,110.5,13.3,16.95,288.8
"2009-11-13 00:30:30",1411547,6.193,328,0.66,0.07,16.71,106.5903,16.15,17.13,15.63,0,110.5,13.31,16.95,290.0
"2009-11-13 00:31:00",1411548,6.305,327,1.608,0.158,16.7,106.5888,16.14,17.14,15.66,0,110.5,13.31,16.95,289.0
"2009-11-13 00:31:30",1411549,6.557,329.2,2.013,0.173,16.62,106.5918,16.15,17.13,15.71,0,110.5,13.31,16.96,291.2
"2009-11-13 00:32:00",1411550,6.771,329.7,1.722,0.272,16.68,106.593,16.15,17.13,15.74,0,110.5,13.31,16.96,291.7
"2009-11-13 00:32:30",1411551,7.092,329.3,1.018,0.095,16.69,106.5939,16.15,17.11,15.73,0,110.5,13.32,16.96,291.3
"2009-11-13 00:33:00",1411552,7.582,329.9,1.133,0.125,16.57,106.5936,16.15,17.14,15.71,0,110.5,13.32,16.96,291.9
"2009-11-13 00:33:30",1411553,7.701,330.2,1.585,0.122,16.56,106.5945,16.16,17.12,15.69,0,110.5,13.32,16.96,292.2
"2009-11-13 00:34:00",1411554,7.444,327.5,1.789,0.248,16.71,106.5945,16.16,17.13,15.69,0,110.5,13.32,16.96,289.5
"2009-11-13 00:34:30",1411555,7.367,329.5,1.878,0.267,16.62,106.5945,16.16,17.12,15.71,0,110.5,13.32,16.96,291.5
"2009-11-13 00:35:00",1411556,7.145,325.1,1.198,0.277,16.77,106.5945,16.16,17.12,15.71,0,110.5,13.32,16.96,287.1
"2009-11-13 00:35:30",1411557,6.734,325.8,2.021,0.18,16.73,106.5945,16.16,17.12,15.73,0,110.5,13.32,16.96,287.8
"2009-11-13 00:36:00",1411558,6.648,327.4,3.702,0.158,16.68,106.5945,16.16,17.13,15.65,0,110.5,13.32,16.96,289.4
"2009-11-13 00:36:30",1411559,6.753,332.6,1.463,0.143,16.58,106.5945,16.16,17.11,15.62,0,110.5,13.32,16.96,294.6
"2009-11-13 00:37:00",1411560,7.252,336.3,0.947,0.189,16.53,106.5945,16.16,17.13,15.65,0,110.5,13.32,16.96,298.3
"2009-11-13 00:37:30",1411561,7.388,335.1,0.986,0.138,16.53,106.5914,16.15,17.11,15.65,0,110.5,13.32,16.96,297.1
"2009-11-13 00:38:00",1411562,7.523,334.5,1.062,0.076,16.55,106.5858,16.13,17.11,15.69,0,110.5,13.32,16.94,296.5
"2009-11-13 00:38:30",1411563,7.458,336.8,1.115,0.093,16.59,106.5759,16.11,17.09,15.7,0,110.5,13.32,16.92,298.8
"2009-11-13 00:39:00",1411564,7.545,337,1.176,0.113,16.6,106.5703,16.09,17.09,15.71,0,110.5,13.32,16.90,299.0
"2009-11-13 00:39:30",1411565,7.96,337.1,1.219,0.193,16.51,106.5618,16.07,17.09,15.71,0,110.5,13.32,16.88,299.1
"2009-11-13 00:40:00",1411566,7.839,338.6,0.931,0.129,16.44,106.5607,16.07,17.08,15.72,0,110.5,13.32,16.88,300.6
"2009-11-13 00:40:30",1411567,7.966,336.2,1.222,0.21,16.49,106.5607,16.07,17.09,15.74,0,110.5,13.32,16.88,298.2
"2009-11-13 00:41:00",1411568,8.5,333,1.871,0.262,16.55,106.5607,16.07,17.09,15.67,0,110.5,13.32,16.88,295.0
"2009-11-13 00:41:30",1411569,8.01,331.8,2.021,0.158,16.52,106.5607,16.07,17.06,15.61,0,110.5,13.32,16.88,293.8
"2009-11-13 00:42:00",1411570,8.64,336.8,1.579,0.175,16.46,106.5607,16.07,17.07,15.64,0,110.5,13.32,16.88,298.8
"2009-11-13 00:42:30",1411571,8.34,332.8,1.175,0.213,16.52,106.5607,16.07,17.07,15.64,0,110.5,13.32,16.88,294.8
"2009-11-13 00:43:00",1411572,8.32,333.7,1.44,0.124,16.6,106.5565,16.06,17.06,15.58,0,110.5,13.32,16.87,295.7
"2009-11-13 00:43:30",1411573,8.32,333.9,1.123,0.198,16.51,106.541,16.02,17.05,15.6,0,110.5,13.32,16.83,295.9
"2009-11-13 00:44:00",1411574,8.51,334.2,1.087,0.258,16.55,106.5277,15.98,17.04,15.61,0,110.5,13.31,16.79,296.2
"2009-11-13 00:44:30",1411575,8.06,334.9,1.186,0.287,16.65,106.5269,15.98,17.03,15.62,0,110.5,13.32,16.79,296.9
"2009-11-13 00:45:00",1411576,7.619,330.6,2.562,0.207,16.68,106.5269,15.98,17.02,15.59,0,110.5,13.32,16.79,292.6
"2009-11-13 00:45:30",1411577,7.602,332.2,0.898,0.124,16.6,106.5269,15.98,17.01,15.56,0,110.5,13.32,16.79,294.2
"2009-11-13 00:46:00",1411578,7.3,328.8,1.905,0.321,16.6,106.5269,15.98,16.99,15.55,0,110.5,13.32,16.79,290.8
"2009-11-13 00:46:30",1411579,7.436,329.7,1.029,0.212,16.63,106.5269,15.98,16.99,15.55,0,110.5,13.32,16.79,291.7
"2009-11-13 00:47:00",1411580,7.539,329.4,1.867,0.354,16.55,106.5266,15.98,16.98,15.55,0,110.5,13.32,16.79,291.4
"2009-11-13 00:47:30",1411581,7.196,328.1,2.155,0.13,16.57,106.5246,15.98,16.98,15.6,0,110.5,13.32,16.78,290.1
"2009-11-13 00:48:00",1411582,7.935,331.1,1.236,0.264,16.43,106.5165,15.96,16.97,15.66,0,110.5,13.32,16.76,293.1
"2009-11-13 00:48:30",1411583,8.79,331.3,0.332,0.216,16.25,106.5032,15.92,16.96,15.76,0,110.5,13.32,16.73,293.3
"2009-11-13 00:49:00",1411584,8.49,331.9,0.68,0.19,16.35,106.4967,15.91,16.95,15.84,0,110.5,13.32,16.71,293.9
"2009-11-13 00:49:30",1411585,7.317,330.1,1.978,0.465,16.5,106.4931,15.9,16.94,15.8,0,110.5,13.32,16.70,292.1
"2009-11-13 00:50:00",1411586,6.572,327,1.83,0.236,16.56,106.4931,15.9,16.95,15.79,0,110.5,13.33,16.70,289.0
"2009-11-13 00:50:30",1411587,6.369,327.8,1.513,0.22,16.61,106.4931,15.9,16.94,15.98,0,110.5,13.33,16.70,289.8
"2009-11-13 00:51:00",1411588,6.274,328.9,1.458,0.169,16.55,106.4931,15.9,16.92,15.89,0,110.5,13.33,16.70,290.9
"2009-11-13 00:51:30",1411589,5.918,329.6,1.26,0.083,16.66,106.4931,15.9,16.92,15.85,0,110.5,13.33,16.70,291.6
"2009-11-13 00:52:00",1411590,5.38,329.6,1.427,0.304,16.6,106.4931,15.9,16.9,15.88,0,110.5,13.33,16.70,291.6
"2009-11-13 00:52:30",1411591,4.729,326.3,1.634,0.198,16.61,106.4888,15.89,16.9,16.16,0,110.5,13.33,16.69,288.3
"2009-11-13 00:53:00",1411592,4.231,327.8,1.921,0.239,16.54,106.4773,15.86,16.89,16.66,0,110.5,13.33,16.66,289.8
"2009-11-13 00:53:30",1411593,3.664,326.2,4.044,0.19,16.63,106.4686,15.83,16.89,16.85,0,110.5,13.33,16.64,288.2
"2009-11-13 00:54:00",1411594,4.308,323.6,3.884,0.113,16.76,106.466,15.83,16.88,17.59,0,110.5,13.33,16.63,285.6
"2009-11-13 00:54:30",1411595,4.124,327.9,3.173,0.093,16.58,106.461,15.81,16.88,17.02,0,110.4,13.33,16.62,289.9
"2009-11-13 00:55:00",1411596,4.726,329.4,2.566,0.289,16.67,106.4592,15.81,16.86,16.96,0,110.5,13.33,16.62,291.4
"2009-11-13 00:55:30",1411597,5.366,330.1,1.085,0.193,16.56,106.4604,15.81,16.86,16.72,0,110.5,13.33,16.62,292.1
"2009-11-13 00:56:00",1411598,6.1,330.7,1.361,0.25,16.41,106.4595,15.81,16.86,16.3,0,110.4,13.33,16.62,292.7
"2009-11-13 00:56:30",1411599,5.919,333.9,1.554,0.214,16.44,106.4602,15.81,16.85,16.12,0,110.4,13.33,16.62,295.9
"2009-11-13 00:57:00",1411600,5.829,334.3,2.335,0.207,16.49,106.4623,15.82,16.85,16.1,0,110.4,13.33,16.62,296.3
"2009-11-13 00:57:30",1411601,6.083,331.8,1.031,0.127,16.38,106.4564,15.8,16.82,16.11,0,110.4,13.33,16.61,293.8
"2009-11-13 00:58:00",1411602,6.098,332.3,0.869,0.147,16.38,106.4505,15.79,16.83,16.13,0,110.4,13.33,16.59,294.3
"2009-11-13 00:58:30",1411603,5.917,325.7,2.847,0.157,16.36,106.4333,15.74,16.81,16.15,0,110.4,13.33,16.55,287.7
"2009-11-13 00:59:00",1411604,5.834,325.3,3.512,0.323,16.22,106.4308,15.74,16.81,16.21,0,110.4,13.33,16.54,287.3
"2009-11-13 00:59:30",1411605,6.693,331.2,3.079,0.339,16.24,106.4335,15.74,16.8,16.22,0,110.4,13.33,16.55,293.2
"2009-11-13 01:00:00",1411606,6.95,333.1,3.835,0.382,16.29,106.4353,15.75,16.79,16.25,0,110.4,13.32,16.56,295.1
"2009-11-13 01:00:30",1411607,7.012,328,2.173,0.284,16.31,106.4347,15.75,16.78,16.28,0,110.4,13.32,16.55,290.0
"2009-11-13 01:01:00",1411608,7.132,329.4,2.2,0.211,16.3,106.4365,15.75,16.78,16.28,0,110.4,13.32,16.56,291.4
"2009-11-13 01:01:30",1411609,7.365,332.2,1.686,0.193,16.42,106.426,15.72,16.75,16.21,0,110.4,13.32,16.53,294.2
"2009-11-13 01:02:00",1411610,6.781,329,1.755,0.281,16.48,106.4117,15.69,16.74,16.25,0,110.4,13.32,16.49,291.0
"2009-11-13 01:02:30",1411611,6.565,329.2,1.248,0.167,16.5,106.4084,15.68,16.73,16.36,0,110.4,13.32,16.49,291.2
"2009-11-13 01:03:00",1411612,6.82,329.5,0.903,0.163,16.48,106.4105,15.68,16.72,16.32,0,110.4,13.32,16.49,291.5
"2009-11-13 01:03:30",1411613,6.929,328.8,0.728,0.083,16.52,106.4135,15.69,16.71,16.09,0,110.4,13.33,16.50,290.8
"2009-11-13 01:04:00",1411614,6.667,325.3,1.611,0.169,16.49,106.4132,15.69,16.7,16.02,0,110.4,13.33,16.50,287.3
"2009-11-13 01:04:30",1411615,6.352,325.2,1.526,0.2,16.63,106.4147,15.7,16.7,16.09,0,110.4,13.33,16.50,287.2
"2009-11-13 01:05:00",1411616,6.291,322.2,0.643,0.06,16.46,106.4174,15.7,16.68,16.07,0,110.4,13.33,16.51,284.2
"2009-11-13 01:05:30",1411617,6.593,323,1.038,0.129,16.43,106.4109,15.69,16.68,15.99,0,110.4,13.33,16.49,285.0
"2009-11-13 01:06:00",1411618,6.667,323,0.89,0.073,16.36,106.396,15.65,16.65,15.97,0,110.4,13.33,16.45,285.0
"2009-11-13 01:06:30",1411619,6.875,322.2,0.674,0.09,16.36,106.3861,15.62,16.66,15.96,0,110.4,13.33,16.43,284.2
"2009-11-13 01:07:00",1411620,6.508,323.3,0.865,0.171,16.33,106.3833,15.61,16.64,15.95,0,110.4,13.33,16.42,285.3
"2009-11-13 01:07:30",1411621,6.954,323.2,1.432,0.162,16.29,106.3857,15.62,16.65,15.98,0,110.4,13.33,16.43,285.2
"2009-11-13 01:08:00",1411622,7.551,326.6,1.347,0.144,16.18,106.3857,15.62,16.62,16.02,0,110.4,13.33,16.43,288.6
"2009-11-13 01:08:30",1411623,7.602,326.6,1.36,0.205,16.24,106.3881,15.63,16.61,16.01,0,110.4,13.33,16.43,288.6
"2009-11-13 01:09:00",1411624,7.446,324.5,1.325,0.106,16.36,106.3884,15.63,16.61,15.98,0,110.4,13.33,16.43,286.5
"2009-11-13 01:09:30",1411625,7.323,324.5,1.697,0.196,16.38,106.389,15.63,16.6,15.96,0,110.4,13.33,16.44,286.5
"2009-11-13 01:10:00",1411626,7.253,321.3,1.481,0.29,16.36,106.3804,15.61,16.59,15.95,0,110.4,13.34,16.41,283.3
"2009-11-13 01:10:30",1411627,7.433,316.8,1.593,0.154,16.34,106.369,15.58,16.58,15.93,0,110.4,13.34,16.38,278.8
"2009-11-13 01:11:00",1411628,7.511,319.9,1.543,0.201,16.37,106.3606,15.56,16.58,15.9,0,110.4,13.34,16.36,281.9
"2009-11-13 01:11:30",1411629,7.871,320.5,1.102,0.199,16.25,106.3581,15.55,16.57,15.86,0,110.4,13.34,16.36,282.5
"2009-11-13 01:12:00",1411630,7.882,318.5,1.94,0.177,16.33,106.3587,15.55,16.56,15.83,0,110.4,13.34,16.36,280.5
"2009-11-13 01:12:30",1411631,7.723,316.8,1.05,0.113,16.25,106.3596,15.55,16.57,15.81,0,110.4,13.34,16.36,278.8
"2009-11-13 01:13:00",1411632,7.714,317.3,0.879,0.108,16.16,106.3596,15.55,16.55,15.81,0,110.4,13.34,16.36,279.3
"2009-11-13 01:13:30",1411633,7.765,315.1,0.912,0.09,16.14,106.3599,15.55,16.55,15.85,0,110.4,13.34,16.36,277.1
"2009-11-13 01:14:00",1411634,7.449,315.9,0.984,0.147,16.14,106.3599,15.55,16.54,15.93,0,110.4,13.34,16.36,277.9
"2009-11-13 01:14:30",1411635,7.288,315.5,1.438,0.213,16.07,106.3596,15.55,16.52,15.92,0,110.4,13.34,16.36,277.5
"2009-11-13 01:15:00",1411636,7.789,314,1.194,0.148,15.95,106.3599,15.55,16.51,15.95,0,110.4,13.34,16.36,276.0
"2009-11-13 01:15:30",1411637,7.516,313,1.225,0.106,16.02,106.3571,15.55,16.53,15.99,0,110.4,13.33,16.35,275.0
"2009-11-13 01:16:00",1411638,7.447,313.3,1.576,0.111,16.12,106.3506,15.53,16.52,15.94,0,110.4,13.33,16.34,275.3
"2009-11-13 01:16:30",1411639,7.479,313.5,1.116,0.117,16.06,106.3394,15.5,16.51,15.96,0,110.4,13.33,16.31,275.5
"2009-11-13 01:17:00",1411640,7.494,311.7,0.837,0.146,15.98,106.3275,15.47,16.5,15.97,0,110.4,13.33,16.28,273.7
"2009-11-13 01:17:30",1411641,7.096,310.1,0.973,0.108,16.03,106.3261,15.47,16.49,16.06,0,110.4,13.33,16.27,272.1
"2009-11-13 01:18:00",1411642,6.887,310.4,1.376,0.146,16.04,106.3261,15.47,16.48,16.37,0,110.4,13.33,16.27,272.4
"2009-11-13 01:18:30",1411643,6.515,311.3,2.255,0.227,16.03,106.3261,15.47,16.48,16.25,0,110.4,13.33,16.27,273.3
"2009-11-13 01:19:00",1411644,7.191,308.5,3.373,0.27,15.93,106.3261,15.47,16.47,16.3,0,110.4,13.33,16.27,270.5
"2009-11-13 01:19:30",1411645,6.536,303.6,4.99,0.29,15.99,106.3261,15.47,16.46,16.49,0,110.4,13.33,16.27,265.6
"2009-11-13 01:20:00",1411646,6.146,301.3,1.46,0.262,16.06,106.321,15.46,16.46,17.36,0,110.4,13.33,16.26,263.3
"2009-11-13 01:20:30",1411647,6.274,300.9,2.157,0.193,16,106.3019,15.41,16.45,17.51,0,110.4,13.34,16.21,262.9
"2009-11-13 01:21:00",1411648,6.116,297.1,2.255,0.18,15.94,106.2934,15.38,16.45,17.62,0,110.4,13.34,16.19,259.1
"2009-11-13 01:21:30",1411649,5.74,294.1,3.141,0.271,15.91,106.2923,15.38,16.43,18.42,0,110.4,13.34,16.19,256.1
"2009-11-13 01:22:00",1411650,5.597,290.9,3.328,0.299,15.83,106.2923,15.38,16.42,18.7,0,110.4,13.35,16.19,252.9
"2009-11-13 01:22:30",1411651,4.622,287.7,3.12,0.267,15.89,106.2889,15.37,16.4,18.85,0,110.4,13.34,16.18,249.7
"2009-11-13 01:23:00",1411652,4.41,292,4.583,0.233,15.81,106.2703,15.33,16.4,19.13,0,110.4,13.34,16.13,254.0
"2009-11-13 01:23:30",1411653,4.467,289.9,3.274,0.302,16.02,106.2599,15.3,16.37,19.26,0,110.4,13.34,16.10,251.9
"2009-11-13 01:24:00",1411654,4.5,291.6,3.373,0.196,15.97,106.2585,15.29,16.35,19.31,0,110.4,13.35,16.10,253.6
"2009-11-13 01:24:30",1411655,4.747,282.4,3.782,0.245,16.44,106.2585,15.29,16.36,19.24,0,110.4,13.35,16.10,244.4
"2009-11-13 01:25:00",1411656,4.423,282.5,3.274,0.271,16.36,106.2455,15.26,16.33,19.17,0,110.4,13.35,16.07,244.5
"2009-11-13 01:25:30",1411657,4.562,285.2,1.643,0.325,16.24,106.2263,15.21,16.31,19.25,0,110.4,13.35,16.02,247.2
"2009-11-13 01:26:00",1411658,5.239,284,2.065,0.392,16.34,106.2246,15.21,16.29,19.27,0,110.4,13.35,16.01,246.0
"2009-11-13 01:26:30",1411659,5.328,289.4,3.669,0.238,16.13,106.2246,15.21,16.28,19.23,0,110.4,13.35,16.01,251.4
"2009-11-13 01:27:00",1411660,5.162,288.5,3.653,0.294,15.79,106.2232,15.2,16.25,19.28,0,110.4,13.35,16.01,250.5
"2009-11-13 01:27:30",1411661,5.521,287.6,3.593,0.403,15.8,106.2131,15.18,16.24,19.33,0,110.4,13.35,15.98,249.6
"2009-11-13 01:28:00",1411662,6.083,278,5.476,0.391,15.94,106.1933,15.13,16.23,19.4,0,110.4,13.35,15.93,240.0
"2009-11-13 01:28:30",1411663,6.072,269.2,3.802,0.311,15.97,106.1908,15.12,16.21,19.4,0,110.4,13.35,15.93,231.2
"2009-11-13 01:29:00",1411664,5.954,268.1,5.602,0.255,15.86,106.1908,15.12,16.18,19.45,0,110.4,13.35,15.93,230.1
"2009-11-13 01:29:30",1411665,5.881,270.9,5.474,0.471,15.97,106.1846,15.11,16.17,19.53,0,110.4,13.35,15.91,232.9
"2009-11-13 01:30:00",1411666,6.228,263.3,5.724,0.351,15.99,106.1623,15.05,16.16,19.45,0,110.4,13.35,15.85,225.3
"2009-11-13 01:30:30",1411667,6.732,262.1,3.547,0.357,16.19,106.157,15.03,16.13,19.38,0,110.4,13.35,15.84,224.1
"2009-11-13 01:31:00",1411668,6.697,264.4,3.164,0.39,16.82,106.157,15.03,16.13,19.19,0,110.4,13.35,15.84,226.4
"2009-11-13 01:31:30",1411669,6.374,257.7,1.364,0.178,16.87,106.157,15.03,16.1,19.04,0,110.4,13.35,15.84,219.7
"2009-11-13 01:32:00",1411670,6.77,254.2,1.104,0.177,16.41,106.157,15.03,16.09,19.14,0,110.4,13.35,15.84,216.2
"2009-11-13 01:32:30",1411671,6.368,255.9,2.051,0.397,16.58,106.157,15.03,16.07,19.13,0,110.4,13.35,15.84,217.9
"2009-11-13 01:33:00",1411672,5.837,262.7,1.037,0.163,17.12,106.157,15.03,16.07,18.89,0,110.4,13.35,15.84,224.7
"2009-11-13 01:33:30",1411673,5.608,262.3,1.5,0.224,17.09,106.157,15.03,16.06,18.74,0,110.4,13.35,15.84,224.3
"2009-11-13 01:34:00",1411674,6.285,261.9,3.334,0.352,17.06,106.1603,15.04,16.06,18.67,0,110.4,13.35,15.85,223.9
"2009-11-13 01:34:30",1411675,6.868,251.5,2.686,0.27,16.64,106.184,15.1,16.09,18.78,0,110.4,13.35,15.91,213.5
"2009-11-13 01:35:00",1411676,6.861,255.2,2.694,0.311,16.94,106.1905,15.12,16.09,18.74,0,110.4,13.35,15.93,217.2
"2009-11-13 01:35:30",1411677,5.846,259.4,2.24,0.29,17.07,106.1911,15.12,16.11,18.53,0,110.4,13.35,15.93,221.4
"2009-11-13 01:36:00",1411678,6.059,251.8,5.41,0.505,16.93,106.1919,15.12,16.1,18.44,0,110.4,13.35,15.93,213.8
"2009-11-13 01:36:30",1411679,6.89,244.7,4.295,0.429,16.36,106.2117,15.18,16.13,18.6,0,110.4,13.35,15.98,206.7
"2009-11-13 01:37:00",1411680,7.24,246.9,1.86,0.208,16.84,106.2264,15.21,16.15,18.69,0,110.4,13.35,16.02,208.9
"2009-11-13 01:37:30",1411681,7.26,242.2,2.732,0.273,16.84,106.2255,15.21,16.16,18.45,0,110.4,13.35,16.02,204.2
"2009-11-13 01:38:00",1411682,7.168,241.8,1.741,0.256,16.89,106.2303,15.22,16.2,18.31,0,110.4,13.35,16.03,203.8
"2009-11-13 01:38:30",1411683,7.121,241.9,1.22,0.12,16.86,106.2557,15.29,16.21,18.24,0,110.4,13.35,16.09,203.9
"2009-11-13 01:39:00",1411684,6.946,243.9,1.661,0.157,16.77,106.2603,15.3,16.24,18.2,0,110.4,13.36,16.11,205.9
"2009-11-13 01:39:30",1411685,7.246,244.1,1.272,0.364,17.02,106.2636,15.31,16.26,18.02,0,110.4,13.36,16.11,206.1
"2009-11-13 01:40:00",1411686,7.235,238.7,2.465,0.14,16.81,106.2879,15.37,16.29,17.82,0,110.4,13.36,16.18,200.7
"2009-11-13 01:40:30",1411687,7.056,235.6,1.497,0.115,16.79,106.2938,15.39,16.31,18.27,0,110.4,13.36,16.19,197.6
"2009-11-13 01:41:00",1411688,7.288,235.7,1.252,0.157,16.73,106.3049,15.41,16.35,18.44,0,110.4,13.36,16.22,197.7
"2009-11-13 01:41:30",1411689,6.999,234.4,1.088,0.144,16.73,106.3297,15.48,16.38,18.85,0,110.4,13.36,16.28,196.4
"2009-11-13 01:42:00",1411690,6.541,238.7,1.92,0.106,16.74,106.3288,15.48,16.41,18.69,0,110.4,13.36,16.28,200.7
"2009-11-13 01:42:30",1411691,6.703,240.6,1.175,0.147,16.67,106.3418,15.51,16.42,18.72,0,110.4,13.36,16.31,202.6
"2009-11-13 01:43:00",1411692,6.564,241.3,1.633,0.246,16.11,106.3651,15.57,16.47,18.87,0,110.4,13.36,16.37,203.3
"2009-11-13 01:43:30",1411693,6.06,253.2,4.07,0.253,15.65,106.3647,15.57,16.48,18.88,0,110.4,13.36,16.37,215.2
"2009-11-13 01:44:00",1411694,6.294,254.4,3.181,0.311,15.79,106.3641,15.57,16.51,18.84,0,110.4,13.36,16.37,216.4
"2009-11-13 01:44:30",1411695,7.151,251.8,1.276,0.398,16.02,106.3674,15.57,16.54,18.75,0,110.4,13.36,16.38,213.8
"2009-11-13 01:45:00",1411696,7.555,255.6,1.973,0.156,16.67,106.3711,15.58,16.53,18.76,0,110.4,13.36,16.39,217.6
"2009-11-13 01:45:30",1411697,7.78,257.9,0.631,0.269,16.92,106.3789,15.6,16.56,18.85,0,110.4,13.36,16.41,219.9
"2009-11-13 01:46:00",1411698,8.23,253.5,1.397,0.186,16.88,106.3883,15.63,16.57,18.45,0,110.4,13.36,16.43,215.5
"2009-11-13 01:46:30",1411699,7.252,253.4,2.016,0.208,16.7,106.3993,15.66,16.57,18.36,0,110.4,13.36,16.46,215.4